Waarnemingen

Advertentie
Mijn weer
Fürstenzell, Duitsland (10895): temperatuur & dauwpunt: 19.09.2017 06:00:00 - 25.09.2017 06:00:00 (CEST)Fürstenzell, Duitsland (10895): temperatuur 5cm & temperatuur -5cm: 19.09.2017 06:00:00 - 25.09.2017 06:00:00 (CEST)Fürstenzell, Duitsland (10895): temperatuur -20cm & temperatuur -100cm: 19.09.2017 06:00:00 - 25.09.2017 06:00:00 (CEST)Fürstenzell, Duitsland (10895): windsnelheid & windstoten: 19.09.2017 06:00:00 - 25.09.2017 06:00:00 (CEST)Fürstenzell, Duitsland (10895): windrichting: 19.09.2017 06:00:00 - 25.09.2017 06:00:00 (CEST)Fürstenzell, Duitsland (10895): luchtdruk: 19.09.2017 06:00:00 - 25.09.2017 06:00:00 (CEST)Fürstenzell, Duitsland (10895): zicht: 19.09.2017 06:00:00 - 25.09.2017 06:00:00 (CEST)Fürstenzell, Duitsland (10895): Zonneschijnduur: 19.09.2017 06:00:00 - 25.09.2017 06:00:00 (CEST)Fürstenzell, Duitsland (10895): neerslag: 19.09.2017 06:00:00 - 25.09.2017 06:00:00 (CEST)
Datum & Tijd tt [°C] td [°C] tt 5cm [°C] tt -5cm [°C] tt -20cm [°C] tt -100cm [°C] ff [km/u] ff [kn] fx [km/u] fx [kn] dd ppp [hPa] vv [km] sd [min] rr [mm]
25.09.2017 06:00:00 9,4 9,3 7,7 10,5 13,4 14,9 4 2 7 4 ONO 1021,0 8 0 0,0
25.09.2017 05:00:00 9,3 9,3 8,3 10,6 13,6 14,9 5 3 9 5 NO 1021,2 8 0 0,0
25.09.2017 04:00:00 9,3 9,3 8,3 11,0 13,9 14,9 7 4 10 5 NO 1021,4 7 0 0,0
25.09.2017 03:00:00 9,4 9,4 8,4 11,3 14,2 14,9 4 2 9 5 NO 1021,6 6 0 0,0
25.09.2017 02:00:00 9,8 9,8 8,7 11,7 14,4 14,9 0 0 0 0 N 1021,8 9 0 0,0
25.09.2017 01:00:00 10,7 9,4 7,9 12,5 14,6 14,9 0 0 0 0 N 1021,8 16 0 0,0
25.09.2017 00:00:00 11,5 9,4 9,9 13,0 14,8 14,9 3 2 5 3 ZZO 1022,0 17 0 0,0
24.09.2017 23:00:00 11,6 9,5 10,1 13,5 15,1 14,9 4 2 10 6 ONO 1022,0 20 0 0,0
24.09.2017 22:00:00 12,0 9,7 11,5 14,0 15,3 14,9 10 5 16 9 NO 1022,0 22 0 0,0
24.09.2017 21:00:00 12,4 9,8 12,1 14,6 15,4 14,9 13 7 20 11 NO 1021,7 21 0 0,0
24.09.2017 20:00:00 13,1 9,7 12,6 15,4 15,6 14,9 12 7 25 13 ONO 1021,4 23 0 0,0
24.09.2017 19:00:00 14,5 10,5 14,1 16,7 15,6 14,9 5 3 16 9 NNO 1020,9 27 0 0,0
24.09.2017 18:00:00 16,2 8,8 15,9 17,5 15,5 14,9 4 2 9 5 W 1020,3 3,3 0 0,0
24.09.2017 17:00:00 16,2 9,0 16,9 18,2 15,2 14,9 7 4 19 10 WNW 1020,3 17 0 0,0
24.09.2017 16:00:00 16,3 9,0 17,7 19,3 14,8 14,9 10 5 18 10 NW 1020,0 21 7 0,0
24.09.2017 15:00:00 16,8 8,4 18,7 20,0 14,3 14,9 6 4 17 9 W 1020,0 14 33 0,0
24.09.2017 14:00:00 17,0 9,5 20,9 19,6 13,7 14,9 6 3 16 9 ZZW 1020,1 12 58 0,0
24.09.2017 13:00:00 15,4 9,7 18,8 18,3 13,2 14,9 5 3 16 8 ZZW 1020,8 9 60 0,0
24.09.2017 12:00:00 13,8 9,2 15,8 16,5 12,8 14,9 6 3 16 8 ZZO 1021,4 9 60 0,0
24.09.2017 11:00:00 13,0 10,6 15,4 14,2 12,6 14,9 6 3 11 6 ZW 1021,5 6 47 0,0
24.09.2017 10:00:00 10,4 9,8 11,6 11,9 12,6 14,9 3 1 9 5 ONO 1021,8 4,5 0 0,0
24.09.2017 09:00:00 9,7 9,7 10,5 11,3 12,7 14,9 8 4 12 7 NO 1021,8 2,5 0 0,0
24.09.2017 08:00:00 8,7 8,7 9,0 10,9 12,8 14,9 9 5 14 7 ZZW 1021,4 0,2 0 0,0
24.09.2017 07:00:00 9,1 8,9 8,9 11,0 12,9 14,9 3 2 9 5 ONO 1021,2 4,5 0 0,0
24.09.2017 06:00:00 9,6 8,7 9,4 11,0 13,0 14,9 6 4 11 6 ONO 1020,7 10 0 0,0
24.09.2017 05:00:00 9,7 8,0 9,3 11,1 13,1 14,9 6 4 9 5 ONO 1020,8 15 0 0,0
24.09.2017 04:00:00 9,8 8,6 9,5 11,1 13,3 14,9 7 4 9 5 NNO 1020,9 13 0 0,0
24.09.2017 03:00:00 9,8 9,4 9,3 11,0 13,5 14,9 5 3 9 5 NO 1020,8 9 0 0,0
24.09.2017 02:00:00 9,8 8,6 7,5 11,0 13,7 14,9 7 4 14 7 O 1021,0 13 0 0,0
24.09.2017 01:00:00 9,6 9,3 8,6 11,5 14,0 15,0 10 5 13 7 NO 1021,1 8 0 0,0
24.09.2017 00:00:00 10,1 9,7 9,2 12,2 14,2 15,0 11 6 14 8 NO 1021,2 8 0 0,0
23.09.2017 23:00:00 10,8 10,2 9,7 13,0 14,3 15,0 8 5 16 9 N 1021,3 12 0 0,0
23.09.2017 22:00:00 12,8 9,8 11,6 13,3 14,5 15,0 5 3 8 4 NNO 1020,8 20 0 0,0
23.09.2017 21:00:00 12,1 9,1 11,0 13,5 14,7 15,0 8 4 14 8 N 1020,9 18 0 0,0
23.09.2017 20:00:00 14,2 8,8 12,5 14,4 14,9 15,0 10 6 16 8 W 1020,4 19 0 0,0
23.09.2017 19:00:00 14,8 9,1 13,5 15,4 14,9 15,0 10 6 17 9 W 1020,3 20 9 0,0
23.09.2017 18:00:00 15,9 8,2 15,6 16,7 14,7 15,0 12 7 18 10 W 1020,1 29 33 0,0
23.09.2017 17:00:00 16,8 9,1 18,4 17,9 14,4 15,0 10 6 28 15 NW 1019,8 23 60 0,0
23.09.2017 16:00:00 16,9 8,7 19,1 19,0 13,9 15,0 11 6 19 10 WNW 1020,1 22 60 0,0
23.09.2017 15:00:00 16,5 8,8 19,2 19,0 13,3 15,0 12 6 21 11 W 1020,8 15 60 0,0
23.09.2017 14:00:00 16,2 8,8 19,6 18,4 12,7 15,0 14 8 22 12 WZW 1021,2 17 56 0,0
23.09.2017 13:00:00 13,5 10,5 15,4 17,0 12,2 15,0 7 4 12 7 WZW 1022,6 8 55 0,0
23.09.2017 12:00:00 10,8 9,8 13,5 14,7 11,8 15,0 7 4 17 9 ZW 1023,3 2,7 41 0,0
23.09.2017 11:00:00 9,5 9,3 11,6 12,7 11,6 15,0 3 2 6 3 ZZW 1024,0 1,0 13 0,0
23.09.2017 10:00:00 8,3 8,3 10,5 10,7 11,6 15,0 3 2 12 6 ONO 1024,3 0,2 23 0,0
23.09.2017 09:00:00 6,3 6,3 8,1 9,6 11,7 15,0 5 3 11 6 NO 1024,6 0,1 0 0,0
23.09.2017 08:00:00 6,2 6,2 6,6 9,2 11,8 15,0 8 5 9 5 ONO 1024,6 0,1 0 0,0
23.09.2017 07:00:00 6,1 6,1 6,2 9,1 11,9 15,0 5 3 11 6 NO 1024,3 0,1 0 0,0
23.09.2017 06:00:00 6,3 6,3 6,3 9,1 12,1 15,0 6 3 10 5 NO 1024,0 0,1 0 0,0
23.09.2017 05:00:00 6,2 6,2 6,0 9,2 12,3 15,0 5 3 8 5 ONO 1024,2 0,1 0 0,0
23.09.2017 04:00:00 6,3 6,3 5,5 9,7 12,5 15,0 5 3 7 4 ONO 1024,3 0,1 0 0,0
23.09.2017 03:00:00 7,8 7,8 7,7 10,1 12,7 15,0 7 4 8 4 NO 1024,3 1,4 0 0,0
23.09.2017 02:00:00 7,4 7,4 7,6 10,1 12,9 15,1 7 4 8 5 NO 1024,4 0,1 0 0,0
23.09.2017 01:00:00 8,0 8,0 7,3 10,3 13,1 15,1 6 3 8 4 NNO 1024,0 0,1 0 0,0
23.09.2017 00:00:00 9,2 9,2 7,8 10,6 13,4 15,1 6 3 7 4 NO 1023,9 0,1 0 0,0
22.09.2017 23:00:00 10,1 10,0 6,7 11,1 13,6 15,1 0 0 8 4 N 1023,6 3,5 0 0,0
22.09.2017 22:00:00 10,9 9,9 7,4 11,8 13,8 15,1 4 2 8 4 NNO 1023,1 7 0 0,0
22.09.2017 21:00:00 11,2 9,2 7,3 12,6 14,0 15,1 6 4 7 4 N 1022,8 10 0 0,0
22.09.2017 20:00:00 11,8 9,5 10,1 13,6 14,0 15,1 6 3 9 5 N 1022,5 10 0 0,0
22.09.2017 19:00:00 12,6 10,5 12,3 14,4 14,0 15,1 0 0 0 0 N 1022,0 10 14 0,0
22.09.2017 18:00:00 13,2 10,3 13,5 14,8 13,9 15,1 0 0 6 3 N 1021,7 12 1 0,0
22.09.2017 17:00:00 13,3 10,4 13,0 15,2 13,8 15,1 2 1 9 5 W 1021,6 13 0 0,0
22.09.2017 16:00:00 13,6 10,0 14,3 15,8 13,6 15,1 7 4 12 7 WZW 1021,4 14 0 0,0
22.09.2017 15:00:00 13,6 9,4 14,8 15,8 13,3 15,1 6 3 12 7 WZW 1021,5 14 0 0,0
22.09.2017 14:00:00 13,6 9,6 15,1 15,7 13,0 15,1 7 4 13 7 ZW 1021,5 12 0 0,0
22.09.2017 13:00:00 12,9 9,7 14,7 15,1 12,7 15,1 5 3 11 6 ZZW 1021,7 12 0 0,0
22.09.2017 12:00:00 12,2 8,8 14,7 14,1 12,5 15,1 1 1 10 6 O 1021,7 11 0 0,0
22.09.2017 11:00:00 11,5 9,1 13,7 13,2 12,3 15,1 5 3 8 5 ONO 1021,7 11 0 0,0
22.09.2017 10:00:00 10,6 8,3 11,8 12,2 12,2 15,2 0 0 6 3 N 1022,0 12 0 0,0
22.09.2017 09:00:00 9,6 9,0 10,3 11,2 12,3 15,2 0 0 0 0 N 1021,9 6 0 0,0
22.09.2017 08:00:00 8,5 8,5 8,8 10,7 12,3 15,2 0 0 6 4 N 1021,9 0,2 0 0,0
22.09.2017 07:00:00 9,0 8,6 8,8 10,7 12,4 15,2 0 0 7 4 N 1021,6 7 0 0,0
22.09.2017 06:00:00 8,8 8,8 8,9 10,8 12,5 15,2 4 2 9 5 WZW 1021,5 1,5 0 0,0
22.09.2017 05:00:00 8,9 8,9 9,1 10,9 12,6 15,2 6 4 8 4 ZW 1021,5 0,1 0 0,0
22.09.2017 04:00:00 9,3 9,0 9,2 11,0 12,7 15,2 4 2 11 6 NNW 1021,5 8 0 0,0
22.09.2017 03:00:00 9,7 8,4 7,9 11,2 12,8 15,2 8 4 10 5 ZW 1021,5 11 0 0,0
22.09.2017 02:00:00 10,2 8,9 9,9 11,5 12,9 15,2 7 4 9 5 ZZW 1021,6 11 0 0,0
22.09.2017 01:00:00 10,7 8,7 9,9 11,6 13,0 15,2 0 0 8 5 N 1021,4 12 0 0,0
22.09.2017 00:00:00 11,4 8,2 10,0 11,7 13,1 15,2 4 2 8 4 W 1021,2 16 0 0,0
21.09.2017 23:00:00 11,4 8,3 9,9 11,8 13,2 15,2 0 0 6 4 N 1021,3 15 0 0,0
21.09.2017 22:00:00 11,2 8,1 8,7 12,2 13,3 15,3 4 2 8 5 ZW 1021,5 16 0 0,0
21.09.2017 21:00:00 12,5 8,0 11,0 12,7 13,4 15,3 5 3 8 5 NW 1021,2 22 0 0,0
21.09.2017 20:00:00 12,3 8,2 11,1 13,1 13,4 15,3 4 2 11 6 NNW 1021,1 26 0 0,0
21.09.2017 19:00:00 12,6 8,7 12,2 13,6 13,4 15,3 6 3 9 5 W 1021,0 17 0 0,0
21.09.2017 18:00:00 13,1 8,6 13,1 14,1 13,3 15,3 6 3 16 9 WNW 1021,0 18 0 0,0
21.09.2017 17:00:00 13,3 8,2 13,9 14,5 13,1 15,3 11 6 20 11 WNW 1020,8 22 0 0,0
21.09.2017 16:00:00 13,6 8,5 14,6 14,8 12,9 15,3 13 7 19 11 W 1021,0 23 0 0,0
21.09.2017 15:00:00 13,5 7,7 15,2 14,5 12,7 15,3 9 5 19 11 W 1021,2 24 0 0,0
21.09.2017 14:00:00 12,5 8,1 13,4 14,6 12,3 15,3 12 6 19 10 W 1021,7 18 0 0,0
21.09.2017 13:00:00 12,3 8,2 14,7 14,4 12,0 15,3 9 5 19 10 WZW 1022,2 20 0 0,0
21.09.2017 12:00:00 11,7 8,6 13,6 13,2 11,8 15,3 10 5 18 10 W 1022,6 15 0 0,0
21.09.2017 11:00:00 10,6 8,4 12,2 12,3 11,6 15,4 11 6 21 12 WNW 1022,9 12 0 0,0
21.09.2017 10:00:00 10,2 8,9 11,6 11,1 11,6 15,4 11 6 20 11 W 1022,3 9 0 0,0
21.09.2017 09:00:00 9,1 8,3 9,8 10,2 11,6 15,4 12 7 19 10 W 1022,5 7 0 0,0
21.09.2017 08:00:00 8,7 8,2 8,9 9,8 11,7 15,4 10 5 15 8 W 1022,4 7 0 0,0
21.09.2017 07:00:00 8,7 7,9 8,6 9,8 11,8 15,4 8 5 18 10 W 1022,3 9 0 0,0
21.09.2017 06:00:00 8,7 7,9 8,6 9,8 11,8 15,4 13 7 23 12 W 1022,1 11 0 0,0
21.09.2017 05:00:00 8,7 7,7 8,6 9,8 11,9 15,4 17 9 27 15 W 1022,2 16 0 0,0
21.09.2017 04:00:00 8,5 7,9 8,4 10,0 12,0 15,4 13 7 20 11 W 1022,4 13 0 0,0
21.09.2017 03:00:00 8,6 7,7 8,5 10,1 12,1 15,4 5 3 18 10 ZW 1022,8 28 0 0,0
21.09.2017 02:00:00 8,8 7,4 8,6 10,2 12,3 15,4 14 7 19 10 W 1022,7 33 0 0,0
21.09.2017 01:00:00 9,1 7,5 8,9 10,3 12,4 15,4 12 6 17 9 W 1022,6 25 0 0,0
21.09.2017 00:00:00 9,1 7,6 8,8 10,4 12,5 15,5 6 4 22 12 WNW 1022,4 16 0 0,0
20.09.2017 23:00:00 9,4 7,7 9,1 10,7 12,6 15,5 16 9 23 12 W 1022,2 15 0 0,0
20.09.2017 22:00:00 9,5 7,8 9,1 11,0 12,8 15,5 9 5 12 6 W 1022,0 15 0 0,0
20.09.2017 21:00:00 9,7 6,6 8,9 11,2 12,9 15,5 8 5 12 7 ZW 1021,9 25 0 0,0
20.09.2017 20:00:00 10,3 5,8 9,5 11,5 13,0 15,5 8 4 15 8 WNW 1021,5 42 0 0,0
20.09.2017 19:00:00 10,7 5,2 9,6 12,1 13,1 15,5 13 7 42 23 WNW 1020,8 53 2 0,1
20.09.2017 18:00:00 11,2 6,1 11,2 13,1 13,0 15,5 10 5 36 19 NW 1020,6 57 0 0,0
20.09.2017 17:00:00 13,1 7,0 13,4 14,1 12,8 15,5 14 8 30 16 W 1019,8 26 18 0,0
20.09.2017 16:00:00 13,6 6,5 15,7 14,7 12,6 15,5 26 14 38 21 WNW 1019,6 20 26 0,0
20.09.2017 15:00:00 12,8 8,1 13,6 14,3 12,3 15,5 16 9 34 18 W 1019,9 21 7 0,0
20.09.2017 14:00:00 12,5 8,5 14,3 14,0 12,0 15,6 19 10 37 20 W 1019,9 14 0 0,0
20.09.2017 13:00:00 12,0 9,4 14,6 13,3 11,7 15,6 19 10 31 17 WNW 1020,2 13 4 0,0
20.09.2017 12:00:00 10,2 8,3 11,7 11,9 11,5 15,6 22 12 31 17 W 1020,9 10 0 0,0
20.09.2017 11:00:00 9,6 8,1 10,9 11,1 11,5 15,6 16 9 31 17 W 1021,0 8 0 0,0
20.09.2017 10:00:00 8,8 8,0 9,9 10,1 11,5 15,6 23 13 33 18 WNW 1020,9 7 0 0,0
20.09.2017 09:00:00 8,3 7,7 8,7 9,5 11,5 15,6 18 10 30 16 WNW 1020,7 7 0 0,0
20.09.2017 08:00:00 8,0 7,5 8,1 9,3 11,6 15,6 14 8 27 15 W 1020,3 7 0 0,0
20.09.2017 07:00:00 8,0 7,5 7,9 9,3 11,7 15,6 18 10 26 14 W 1020,0 8 0 0,0
20.09.2017 06:00:00 8,1 7,7 7,9 9,4 11,8 15,6 18 10 28 15 WNW 1019,6 7 0 0,0
20.09.2017 05:00:00 8,4 7,9 8,3 9,6 11,9 15,6 17 9 28 15 WNW 1019,1 8 0 0,0
20.09.2017 04:00:00 8,6 8,0 8,5 9,7 12,0 15,7 15 8 32 17 WNW 1018,9 8 0 0,0
20.09.2017 03:00:00 8,9 7,7 8,8 9,8 12,1 15,7 23 12 33 18 WNW 1018,7 16 0 0,0
20.09.2017 02:00:00 9,0 7,2 8,7 9,9 12,3 15,7 18 10 32 17 W 1018,8 39 0 0,0
20.09.2017 01:00:00 9,2 7,1 9,0 10,1 12,4 15,7 20 11 29 16 WNW 1018,5 41 0 0,0
20.09.2017 00:00:00 9,2 7,7 8,9 10,4 12,5 15,7 16 8 26 14 W 1018,5 29 0 0,0
19.09.2017 23:00:00 9,6 7,9 9,4 10,6 12,6 15,7 18 10 26 14 WNW 1018,6 26 0 0,0
19.09.2017 22:00:00 10,1 8,1 9,8 10,9 12,8 15,7 16 9 23 12 W 1018,2 26 0 0,0
19.09.2017 21:00:00 10,1 8,2 9,8 11,1 12,9 15,7 12 7 22 12 WNW 1017,9 29 0 0,0
19.09.2017 20:00:00 10,5 8,1 10,2 11,5 12,9 15,7 18 10 23 13 WNW 1017,4 34 0 0,0
19.09.2017 19:00:00 10,9 8,3 10,6 12,1 13,0 15,7 15 8 26 14 W 1016,5 27 0 0,0
19.09.2017 18:00:00 11,2 8,3 11,2 12,7 12,9 15,7 14 7 21 11 W 1016,3 36 0 0,0
19.09.2017 17:00:00 11,5 8,2 11,9 13,0 12,8 15,8 11 6 21 12 W 1015,9 27 0 0,0
19.09.2017 16:00:00 11,4 8,5 11,9 13,2 12,7 15,8 13 7 20 11 W 1016,0 26 0 0,0
19.09.2017 15:00:00 11,0 7,9 11,9 13,5 12,4 15,8 14 7 21 12 WNW 1016,4 27 0 0,0
19.09.2017 14:00:00 10,8 8,9 12,6 13,8 12,1 15,8 13 7 17 9 WNW 1016,6 22 0 0,0
19.09.2017 13:00:00 10,6 8,2 12,1 13,4 11,8 15,8 9 5 12 7 W 1016,8 31 0 0,0
19.09.2017 12:00:00 10,3 7,7 12,0 12,4 11,6 15,8 5 3 11 6 ZW 1017,2 32 0 0,0
19.09.2017 11:00:00 9,2 7,6 10,8 10,6 11,6 15,8 3 1 8 5 NO 1017,4 31 0 0,0
19.09.2017 10:00:00 6,2 6,2 7,1 9,3 11,6 15,8 4 2 8 4 NO 1018,1 1,8 0 0,0
19.09.2017 09:00:00 5,7 5,7 6,2 9,0 11,7 15,8 6 4 8 4 NO 1018,2 1,0 0 0,0
19.09.2017 08:00:00 5,6 5,6 5,8 8,7 11,9 15,8 6 3 9 5 NO 1018,0 15 0 0,0
19.09.2017 07:00:00 5,1 5,1 5,2 8,7 12,1 15,8 9 5 13 7 NO 1018,1 0,1 0 0,0
19.09.2017 06:00:00 5,5 5,5 5,3 8,9 12,3 15,8 8 5 11 6 NNO 1017,8 8 0 0,0

tt = temperatuur
td = dauwpunt
tt 5cm = temperatuur 5cm
tt -5cm = temperatuur -5cm
tt -20cm = temperatuur -20cm
tt -100cm = temperatuur -100cm
ff = windsnelheid
fx = windstoten
dd = windrichting
ppp = luchtdruk
vv = zicht
sd = Zonneschijnduur
rr = neerslag

Weerstations in de omgeving